COSMOS 1275 DEB, 18640

Orbit data source: Space-Track

COSMOS 1275 DEB, 18640 is space debris in LEO originally from a launch on Thu, 04 Jun 1981 UTC launched from the Plesetsk Missile And Space Complex (PKMTR). Debris objects in space refer to the collection of defunct objects orbiting the Earth. Examples of debris include non-operational satellites, rocket bodies, and fragments generated from explosions, collisions, or faulty payload assembly.

Loading next visibility...
Identifier
18640, 1981-053MA
Orbit
LEO
Country
Flag of CISCIS
Related business
Manufacturer
Unknown
Mission
Spacecraft
Bus & Motor
Unknown
Mass
Unknown
Launch date (UTC)
1981-06-04 (45 years ago)
Launch vehicle
Unknown
Launch site
Plesetsk Missile And Space Complex (PKMTR)
Object type
Payload
Rocket body
Debris
Shape & HBR
Unknown shape, 0.1 m
Radar Cross Section
Small (<0.1 m²)

Expand to show TLE details & history
Last TLE update: 22 hours ago

TLE from 22 hours ago
0 COSMOS 1275 DEB
1 18640U 81053MA  25350.37970087  .00001519  00000-0  12456-2 0  9998
2 18640  83.2054 213.4385 0084605  53.8830  66.6400 13.87134282 36425
Epoch: 2025-12-16T09:06Z
TLE epoch observation values (Epoch: 2025-12-16T09:06:46.155Z)
Latitude
58.02662°
Longitude
160.53604°
Altitude
924.373 km
Speed
7.407 km/s
True Right ascension
01h 29m 58s
True Declination
57° 52' 32"
Sunlit
Object was in full shadow at epoch
Visualization orbit readout
Latitude
Unknown
Longitude
Unknown
Altitude
Unknown
Speed
Unknown
Apparent Right ascension
Unknown
Apparent Declination
Unknown
Sunlit
N/A
Visualization observer readout
Local Sidereal Time
05:26:22
Azimuth
Unknown
Elevation
Unknown
Doppler factor
Unknown
Orbital elements
Apogee altitude
997.692 km
Perigee altitude
873.933 km
Semi-major axis
7,313.95 km
Eccentricity
0.00846
Inclination
83.2054°
RAAN
213.4385°
Arg. of periapsis
53.883°
True anomaly
67.53374°
Mean anomaly
66.64°
Eccentric anomaly
67.0865°
Mean motion
3.46989 °/min
Orbital period
103.75 mins
BSTAR
0.0012456
Loading maneuver chart data...
Computing Atmospheric mass density...

Documentation

Showing up to 5 results
|